SCP
-0 -0 -0 -0 -0 0 0 0 0 0 0 0 0 0 0 0 0 0 0 0 0 0 0 0 0 0 0 0 0 0 0 0
-0 -0 -0 -0 0 0 0 0 0 0 0 0 0 0 0 0 0 0 0 0 0 0 0 0 0 0 0 0 0 0 0 0
0 0 0 0 0 0 0 0 0 0 0 0 0 0 0 0 0 0 0 0 0 0 0 0 0 0 0 0 0 0 0 0
0 0 0 0 0 0 0 0 0 0 0 0 0 0 0 0 0 0 0 0 0 0 0 0 0 0 0 0 0 0 0 0
0 0 0 0 0 0 0 0 0 0 0 0 0 0 0 0 0 0 0 0 0 0 0 0 0 0 0 0 0 0 0 0
0 0 0 0 0 0 0 0 0 0 0 0 0 0 0 0 0 0 0 0 0 0 0 0 0 0 0 0 0 0 0 0
0 0 0 0 0 0 0 0 0 0 0 0 0 0 0 0 0 0 0 0 0 0 0 0 0 0 0 0 0 0 0 0
0 0 0 0 0 0 0 0 0 0 0 0 0 0 0 0 0 0 0 0 0 0 0 0 0 0 0 0 0 0 0 0
0 0 0 0 0 0 0 0 0 0 0 0 0 0 0 0 0 0 0 0 0 0 0 0 0 0 0 0 0 0 0 0
0 0 0 0 0 0 0 0 0 0 0 0 0 0 0 0 0 0 0 0 0 0 0 0 0 0 0 0 0 0 0 0
0 0 0 0 0 0 0 0 0 0 0 0 0 0 0 0 0 0 0 0 0 0 0 0 0 0 0 0 0 0 0 0
0 0 0 0 0 0 0 0 0 0 0 0 0 0 0 0 0 0 0 0 0 0 0 0 0 0 0 0 0 0 0 0
0 0 0 0 0 0 0 0 0 0 0 0 0 0 0 0 0 0 0 0 0 0 0 0 0 0 0 0 0 0 0 0
0 0 0 0 0 0 0 0 0 0 0 0 0 0 0 0 0 0 0 0 0 0 0 0 0 0 0 0 0 0 0 0
0 0 0 0 0 0 0 0 0 0 0 0 0 0 0 0 0 0 0 0 0 0 0 0 0 0 0 0 0 0 0 0
0 0 0 0 0 0 0 0 0 0 0 0 0 0 0 0 0 0 0 0 0 0 0 0 0 0 0 0 0 0 0 0
0 0 0 0 0 0 0 0 0 0 0 0 0 0 0 0 0 0 0 0 0 0 0 0 0 0 0 0 0 0 0 0
0 0 0 0 0 0 0 0 0 0 0 0 0 0 0 0 0 0 0 0 0 0 0 0 0 0 0 0 0 0 0 0
0 0 0 0 0 0 0 0 0 0 0 0 0 0 0 0 0 0 0 0 0 0 0 0 0 0 0 0 0 0 0 0
0 0 0 0 0 0 0 0 0 0 0 0 0 0 0 0 0 0 0 0 0 0 0 0 0 0 0 0 0 0 0 0
Wind_Speed_500mb
21 26 30 33 35 37 37 38 40 42 44 47 51 54 58 63 68 70 70 71 74 69 67 69 74 74 74 75 70 72 72 73
20 26 26 27 32 37 41 43 45 48 50 52 53 54 57 62 66 70 74 76 77 79 73 71 72 74 78 79 75 75 75 74
21 22 23 29 38 41 43 47 52 57 60 61 61 60 58 58 59 62 69 75 78 79 82 80 76 75 79 82 80 79 78 75
19 17 23 34 44 52 57 64 69 65 63 64 68 70 69 67 65 65 66 67 72 81 87 84 82 78 80 84 81 81 82 79
10 19 26 36 49 70 71 68 67 68 72 73 72 74 76 77 75 74 73 73 73 75 80 87 89 86 82 80 82 83 83 80
18 23 29 43 63 80 67 64 71 78 81 78 80 78 77 76 76 77 78 79 76 75 75 80 88 92 91 84 81 81 84 84
27 29 41 59 80 76 75 77 79 84 92 94 91 83 83 80 77 78 77 78 79 77 77 77 82 88 91 86 81 83 85 86
31 35 49 67 66 66 74 78 82 83 85 91 90 85 83 82 81 80 79 78 78 76 74 75 77 76 83 81 80 85 87 88
31 40 55 58 61 66 73 75 76 79 82 82 87 88 84 82 81 79 78 80 79 77 75 74 73 70 71 70 73 81 86 90
41 45 52 59 61 67 73 72 72 74 75 76 79 85 86 86 85 81 79 81 83 81 78 76 73 70 65 63 63 75 85 87
42 49 57 62 61 65 69 74 77 72 75 79 80 82 83 80 78 76 78 83 82 84 80 78 76 67 64 62 62 72 81 83
51 61 63 64 66 68 68 76 74 76 79 78 80 82 83 82 76 75 73 75 79 81 80 80 75 71 64 57 61 65 75 82
63 71 72 71 74 73 75 73 74 78 82 82 81 84 87 83 80 73 70 73 75 76 76 75 73 70 64 58 54 57 65 76
66 76 79 77 78 78 80 73 74 80 84 87 86 82 85 87 83 81 72 71 71 71 75 75 70 68 62 59 52 49 55 67
72 82 86 82 82 81 79 74 76 84 86 89 91 93 90 87 86 84 81 75 70 70 71 69 69 67 62 60 53 44 47 50
77 83 90 89 87 85 80 78 81 85 91 96 100 102 101 96 91 89 85 77 70 69 67 67 69 64 60 59 55 45 40 35
80 83 86 85 84 81 79 81 83 87 94 99 102 104 103 97 96 89 89 81 69 68 63 62 64 59 55 52 52 40 31 31
76 76 77 82 87 87 85 81 86 94 98 101 102 98 92 84 77 83 87 75 73 67 59 58 57 49 50 47 38 38 27 36
69 75 82 87 91 85 85 88 92 96 100 98 98 87 78 71 70 70 67 75 76 64 59 54 49 42 43 43 42 37 35 36
74 80 83 89 95 91 91 92 93 92 96 95 91 82 71 67 65 62 62 59 62 61 52 44 33 32 36 35 43 41 37 33
Wind_Direction_500mb
16 8 0 351 343 338 333 328 322 317 315 310 304 298 294 291 287 283 285 285 287 286 281 276 276 274 273 274 277 273 268 264
5 3 4 2 1 356 349 343 338 335 331 326 320 313 305 299 295 291 289 286 285 286 285 280 274 273 272 272 273 273 271 267
4 4 4 358 355 352 348 341 335 330 327 326 326 324 320 316 311 303 295 290 285 283 284 283 278 273 269 269 269 270 270 269
341 339 340 346 347 343 337 334 334 331 325 321 319 316 313 312 313 312 309 302 291 284 281 278 278 277 274 271 268 268 268 267
325 328 335 339 341 337 329 324 325 323 321 319 318 315 311 309 308 306 303 302 302 295 284 280 277 274 271 269 267 266 266 265
302 312 322 329 329 332 330 327 322 318 317 315 312 313 312 310 308 305 302 300 298 296 292 284 278 274 272 269 268 266 266 265
290 303 313 320 321 329 330 324 320 317 315 316 318 317 312 307 304 303 305 304 302 299 296 292 284 281 276 274 271 269 266 264
283 298 311 311 323 328 327 323 319 316 313 311 314 314 313 309 307 302 302 302 303 301 298 296 294 288 282 276 272 270 269 267
280 296 305 317 322 324 323 323 320 319 319 316 313 312 310 305 303 303 300 297 297 300 302 299 297 295 289 283 272 270 269 268
296 299 309 314 318 319 322 322 319 323 319 317 314 311 310 306 303 301 298 295 293 295 296 298 298 298 293 286 276 266 266 267
298 299 306 313 316 314 318 319 320 320 317 316 316 316 314 312 309 304 299 295 293 291 293 294 296 298 295 291 281 272 266 264
301 302 303 306 309 310 313 316 320 314 311 312 317 318 315 311 308 306 302 296 293 293 293 293 296 297 298 295 285 276 273 269
303 303 304 305 306 308 306 315 314 312 308 307 310 314 315 312 308 307 304 301 297 293 293 295 296 296 298 298 289 281 271 271
300 301 301 300 301 304 304 307 310 307 307 305 304 306 311 312 310 305 304 303 302 297 294 294 297 297 297 297 295 284 270 266
301 302 300 300 300 301 304 305 305 304 305 305 306 307 307 307 306 303 300 298 301 300 296 295 293 293 297 298 295 288 278 263
305 302 299 302 301 301 304 305 304 305 306 306 306 305 304 303 301 299 297 295 296 295 295 291 290 293 292 292 292 290 283 275
304 303 303 303 302 302 305 306 306 302 303 304 303 303 304 304 302 296 296 296 292 292 291 290 288 287 284 284 285 284 274 251
308 306 306 305 304 306 309 309 306 304 304 304 303 304 302 300 296 295 297 295 296 294 295 292 291 281 276 275 274 273 263 245
307 308 306 305 305 310 311 308 305 304 304 305 304 302 298 294 294 294 292 298 299 298 298 294 286 276 270 262 270 267 262 251
308 307 308 310 310 313 309 307 305 304 303 303 302 299 296 293 291 289 292 291 294 300 300 301 292 279 261 252 254 257 263 263
Wind_Speed_850mb
21 26 30 33 35 37 37 38 40 42 44 47 51 54 58 63 68 70 70 71 74 69 67 69 74 74 74 75 70 72 72 73
20 26 26 27 32 37 41 43 45 48 50 52 53 54 57 62 66 70 74 76 77 79 73 71 72 74 78 79 75 75 75 74
21 22 23 29 38 41 43 47 52 57 60 61 61 60 58 58 59 62 69 75 78 79 82 80 76 75 79 82 80 79 78 75
19 17 23 34 44 52 57 64 69 65 63 64 68 70 69 67 65 65 66 67 72 81 87 84 82 78 80 84 81 81 82 79
10 19 26 36 49 70 71 68 67 68 72 73 72 74 76 77 75 74 73 73 73 75 80 87 89 86 82 80 82 83 83 80
18 23 29 43 63 80 67 64 71 78 81 78 80 78 77 76 76 77 78 79 76 75 75 80 88 92 91 84 81 81 84 84
27 29 41 59 80 76 75 77 79 84 92 94 91 83 83 80 77 78 77 78 79 77 77 77 82 88 91 86 81 83 85 86
31 35 49 67 66 66 74 78 82 83 85 91 90 85 83 82 81 80 79 78 78 76 74 75 77 76 83 81 80 85 87 88
31 40 55 58 61 66 73 75 76 79 82 82 87 88 84 82 81 79 78 80 79 77 75 74 73 70 71 70 73 81 86 90
41 45 52 59 61 67 73 72 72 74 75 76 79 85 86 86 85 81 79 81 83 81 78 76 73 70 65 63 63 75 85 87
42 49 57 62 61 65 69 74 77 72 75 79 80 82 83 80 78 76 78 83 82 84 80 78 76 67 64 62 62 72 81 83
51 61 63 64 66 68 68 76 74 76 79 78 80 82 83 82 76 75 73 75 79 81 80 80 75 71 64 57 61 65 75 82
63 71 72 71 74 73 75 73 74 78 82 82 81 84 87 83 80 73 70 73 75 76 76 75 73 70 64 58 54 57 65 76
66 76 79 77 78 78 80 73 74 80 84 87 86 82 85 87 83 81 72 71 71 71 75 75 70 68 62 59 52 49 55 67
72 82 86 82 82 81 79 74 76 84 86 89 91 93 90 87 86 84 81 75 70 70 71 69 69 67 62 60 53 44 47 50
77 83 90 89 87 85 80 78 81 85 91 96 100 102 101 96 91 89 85 77 70 69 67 67 69 64 60 59 55 45 40 35
80 83 86 85 84 81 79 81 83 87 94 99 102 104 103 97 96 89 89 81 69 68 63 62 64 59 55 52 52 40 31 31
76 76 77 82 87 87 85 81 86 94 98 101 102 98 92 84 77 83 87 75 73 67 59 58 57 49 50 47 38 38 27 36
69 75 82 87 91 85 85 88 92 96 100 98 98 87 78 71 70 70 67 75 76 64 59 54 49 42 43 43 42 37 35 36
74 80 83 89 95 91 91 92 93 92 96 95 91 82 71 67 65 62 62 59 62 61 52 44 33 32 36 35 43 41 37 33
Wind_Direction_850mb
16 8 0 351 343 338 333 328 322 317 315 310 304 298 294 291 287 283 285 285 287 286 281 276 276 274 273 274 277 273 268 264
5 3 4 2 1 356 349 343 338 335 331 326 320 313 305 299 295 291 289 286 285 286 285 280 274 273 272 272 273 273 271 267
4 4 4 358 355 352 348 341 335 330 327 326 326 324 320 316 311 303 295 290 285 283 284 283 278 273 269 269 269 270 270 269
341 339 340 346 347 343 337 334 334 331 325 321 319 316 313 312 313 312 309 302 291 284 281 278 278 277 274 271 268 268 268 267
325 328 335 339 341 337 329 324 325 323 321 319 318 315 311 309 308 306 303 302 302 295 284 280 277 274 271 269 267 266 266 265
302 312 322 329 329 332 330 327 322 318 317 315 312 313 312 310 308 305 302 300 298 296 292 284 278 274 272 269 268 266 266 265
290 303 313 320 321 329 330 324 320 317 315 316 318 317 312 307 304 303 305 304 302 299 296 292 284 281 276 274 271 269 266 264
283 298 311 311 323 328 327 323 319 316 313 311 314 314 313 309 307 302 302 302 303 301 298 296 294 288 282 276 272 270 269 267
280 296 305 317 322 324 323 323 320 319 319 316 313 312 310 305 303 303 300 297 297 300 302 299 297 295 289 283 272 270 269 268
296 299 309 314 318 319 322 322 319 323 319 317 314 311 310 306 303 301 298 295 293 295 296 298 298 298 293 286 276 266 266 267
298 299 306 313 316 314 318 319 320 320 317 316 316 316 314 312 309 304 299 295 293 291 293 294 296 298 295 291 281 272 266 264
301 302 303 306 309 310 313 316 320 314 311 312 317 318 315 311 308 306 302 296 293 293 293 293 296 297 298 295 285 276 273 269
303 303 304 305 306 308 306 315 314 312 308 307 310 314 315 312 308 307 304 301 297 293 293 295 296 296 298 298 289 281 271 271
300 301 301 300 301 304 304 307 310 307 307 305 304 306 311 312 310 305 304 303 302 297 294 294 297 297 297 297 295 284 270 266
301 302 300 300 300 301 304 305 305 304 305 305 306 307 307 307 306 303 300 298 301 300 296 295 293 293 297 298 295 288 278 263
305 302 299 302 301 301 304 305 304 305 306 306 306 305 304 303 301 299 297 295 296 295 295 291 290 293 292 292 292 290 283 275
304 303 303 303 302 302 305 306 306 302 303 304 303 303 304 304 302 296 296 296 292 292 291 290 288 287 284 284 285 284 274 251
308 306 306 305 304 306 309 309 306 304 304 304 303 304 302 300 296 295 297 295 296 294 295 292 291 281 276 275 274 273 263 245
307 308 306 305 305 310 311 308 305 304 304 305 304 302 298 294 294 294 292 298 299 298 298 294 286 276 270 262 270 267 262 251
308 307 308 310 310 313 309 307 305 304 303 303 302 299 296 293 291 289 292 291 294 300 300 301 292 279 261 252 254 257 263 263